Location: Champs
(48.8539°N, 2.6040°E)
Time: 23:53:35
(UTC+00:00)

DMSP 5D-2 F13 DEB - Pass Details

Date: 11 August 2022
Orbit: 710 x 774 km, 98.8° (Epoch: 28 September)

Event Time Altitude Azimuth Distance (km) Brightness Sun altitude
Exits shadow 23:47:03 42° 262° (W) 1,093 ? -26.1°
Drops below altitude 10° 23:51:56 10° 333° (NNW) 2,339 ? -26.1°
Sets 23:54:24 0° 340° (NNW) 3,277 ? -26.1°
